Location: Chuathbaluk
(61.5726°N, 159.2454°W)
Time: 03:41:37
(UTC+00:00)

Transit 4A - Pass Details

Date: 28 November 2020
Orbit: 864 x 980 km, 66.8° (Epoch: 26 January)

Event Time Altitude Azimuth Distance (km) Brightness Sun altitude
Rises 18:05:07 0° 177° (S) 3,643 11.5 -7.8°
Reaches altitude 10° 18:08:04 10° 165° (SSE) 2,713 11.1 -7.5°
Maximum altitude 18:13:06 25° 112° (ESE) 1,852 10.6 -7.0°
Drops below altitude 10° 18:18:10 10° 60° (ENE) 2,744 10.7 -6.5°
Sets 18:21:10 0° 48° (NE) 3,693 11.2 -6.2°
